Weather History for KPHP - November, 2013

Change the Weather History Date:

Tuesday, November 5, 2013

  Actual Average Record
Temperature  
Mean Temperature 27 °F 39 °F  
Max Temperature 34 °F 53 °F 81 °F (1975)
Min Temperature 20 °F 26 °F -4 °F (1959)
Degree Days  
Heating Degree Days 38 26  
Month to date heating degree days 127 124  
Since 1 July heating degree days 710 827  
Cooling Degree Days 0 0  
Month to date cooling degree days 0 0  
Year to date cooling degree days 945 818  
Moisture  
Dew Point 26 °F    
Average Humidity 85    
Maximum Humidity 92    
Minimum Humidity 78    
Precipitation  
Precipitation 0.39 in 0.02 in 1.08 in (2008)
Month to date precipitation 0.39 0.14  
Year to date precipitation 15.25 16.44  
Sea Level Pressure  
Sea Level Pressure 30.18 in    
Wind  
Wind Speed 6 mph (NE)    
Max Wind Speed 16 mph    
Max Gust Speed 20 mph    
Visibility 3 miles    
Events Fog , Snow    
T = Trace of Precipitation, MM = Missing Value Source: NWS Daily Summary

Daily Weather History Graph

Daily Weather History Graph

Search for Another Location

Airport or City:

Trip Planner

Search our weather history database for the weather conditions in past years. The results will help you decide how hot, cold, wet, or windy it might be!

Date:

Astronomy

Nov. 05, 2013 Rise Set
Actual Time 6:28 AM MST 4:30 PM MST
Civil Twilight 5:58 AM MST 5:01 PM MST
Nautical Twilight 5:23 AM MST 5:35 PM MST
Astronomical Twilight 4:50 AM MST 6:09 PM MST
Moon 8:48 AM MST (11/5) 6:31 PM MST (11/5)
Length of Visible Light 11h 02m
Length of Day
10h 02m
Waxing Crescent, 7% of the Moon is Illuminated
Nov 5
Waxing Crescent
Nov 9
First Quarter
Nov 17
Full
Nov 25
Last Quarter
Dec 2
New

Hourly Weather History & Observations

Time (MST) Temp. Windchill Dew Point Humidity Pressure Visibility Wind Dir Wind Speed Gust Speed Precip Events Conditions
12:55 AM 32.0 °F - 26.1 °F 79% 30.18 in 10.0 mi Calm Calm - N/A   Overcast
1:53 AM 33.8 °F 30.8 °F 26.6 °F 75% 30.15 in 5.0 mi ENE 3.5 mph - 0.00 in Snow Light Snow
1:55 AM 33.1 °F 26.9 °F 26.1 °F 75% 30.19 in 4.0 mi ENE 6.9 mph - 0.00 in Snow Light Snow
2:15 AM 32.0 °F 27.5 °F 26.6 °F 80% 30.15 in 2.5 mi East 4.6 mph - 0.00 in Snow Light Snow
2:30 AM 32.0 °F 25.6 °F 28.4 °F 87% 30.14 in 3.0 mi ENE 6.9 mph - 0.00 in Snow Light Snow
2:39 AM 32.0 °F 25.6 °F 28.4 °F 87% 30.13 in 2.5 mi NE 6.9 mph - 0.00 in Snow Light Snow
2:42 AM 32.0 °F 24.8 °F 28.4 °F 87% 30.12 in 3.0 mi NE 8.1 mph - 0.00 in Snow Light Snow
2:55 AM 32.0 °F 25.6 °F 28.0 °F 85% 30.16 in 5.0 mi ENE 6.9 mph - 0.00 in Snow Light Snow
3:36 AM 32.0 °F 23.6 °F 28.4 °F 87% 30.11 in 7.0 mi ENE 10.4 mph - 0.00 in   Overcast
3:55 AM 32.0 °F 24.2 °F 28.0 °F 85% 30.15 in 10.0 mi ENE 9.2 mph - 0.00 in   Overcast
4:20 AM 33.8 °F 27.0 °F 28.4 °F 81% 30.12 in 8.0 mi East 8.1 mph - 0.00 in Snow Light Snow
4:27 AM 33.8 °F 27.0 °F 28.4 °F 81% 30.11 in 4.0 mi ENE 8.1 mph - 0.00 in Snow Light Snow
4:43 AM 32.0 °F 23.0 °F 28.4 °F 87% 30.12 in 2.0 mi ENE 11.5 mph - 0.00 in Snow Light Snow
4:52 AM 32.0 °F 23.0 °F 28.4 °F 87% 30.12 in 1.2 mi East 11.5 mph - 0.01 in Snow Light Snow
4:55 AM 32.0 °F 23.0 °F 28.0 °F 85% 30.17 in 1.2 mi ENE 11.5 mph - 0.01 in Snow Light Snow
5:42 AM 30.2 °F 22.6 °F 28.4 °F 93% 30.15 in 0.8 mi ENE 8.1 mph - 0.03 in Snow Light Snow
5:55 AM 30.9 °F 24.3 °F 28.9 °F 92% 30.20 in 0.8 mi ENE 6.9 mph - 0.05 in Snow Light Snow
6:12 AM 30.2 °F 22.6 °F 28.4 °F 93% 30.16 in 1.0 mi ENE 8.1 mph - 0.01 in Snow Light Snow
6:21 AM 30.2 °F 21.9 °F 28.4 °F 93% 30.16 in 0.8 mi ENE 9.2 mph - 0.02 in Snow Light Snow
6:38 AM 30.2 °F 21.3 °F 28.4 °F 93% 30.16 in 1.0 mi ENE 10.4 mph - 0.04 in Snow Light Snow
6:55 AM 30.0 °F 21.7 °F 28.0 °F 92% 30.22 in 0.5 mi ENE 9.2 mph - 0.06 in Fog , Snow Snow
7:20 AM 30.2 °F 20.8 °F 28.4 °F 93% 30.16 in 0.5 mi ENE 11.5 mph - 0.02 in Fog , Snow Snow
7:55 AM 30.0 °F 21.1 °F 28.0 °F 92% 30.23 in 0.5 mi ENE 10.4 mph - 0.05 in Fog , Snow Snow
8:13 AM 30.2 °F 21.9 °F 28.4 °F 93% 30.16 in 0.8 mi East 9.2 mph - 0.01 in Snow Light Snow
8:55 AM 30.0 °F 19.5 °F 28.0 °F 92% 30.24 in 0.5 mi ENE 13.8 mph - 0.03 in Fog , Snow Snow
9:55 AM 30.0 °F 18.7 °F 27.0 °F 88% 30.25 in 0.5 mi ENE 16.1 mph - 0.06 in Fog , Snow Snow
10:19 AM 30.2 °F 19.3 °F 28.4 °F 93% 30.19 in 0.8 mi NE 15.0 mph - 0.02 in Snow Light Snow
10:32 AM 30.2 °F 19.8 °F 28.4 °F 93% 30.19 in 0.8 mi NE 13.8 mph - 0.03 in Snow Light Snow
10:47 AM 30.2 °F 20.2 °F 26.6 °F 86% 30.19 in 1.0 mi NE 12.7 mph - 0.04 in Snow Light Snow
10:55 AM 30.9 °F 19.8 °F 27.0 °F 85% 30.25 in 1.0 mi NE 16.1 mph - 0.04 in Snow Light Snow
11:02 AM 30.2 °F 19.8 °F 26.6 °F 86% 30.18 in 0.8 mi NE 13.8 mph - 0.01 in Snow Light Snow
11:32 AM 30.2 °F 20.8 °F 26.6 °F 86% 30.18 in 0.8 mi NE 11.5 mph - 0.02 in Snow Light Snow
11:55 AM 30.9 °F 21.7 °F 27.0 °F 85% 30.24 in 0.8 mi NNE 11.5 mph - 0.03 in Snow Light Snow
12:22 PM 30.2 °F 20.2 °F 26.6 °F 86% 30.17 in 1.0 mi NE 12.7 mph - 0.02 in Snow Light Snow
12:55 PM 30.9 °F 22.8 °F 27.0 °F 85% 30.21 in 1.2 mi NE 9.2 mph - 0.03 in Snow Light Snow
1:21 PM 30.2 °F 22.6 °F 26.6 °F 86% 30.14 in 2.0 mi ENE 8.1 mph - 0.00 in Snow Light Snow
1:31 PM 30.2 °F 22.6 °F 26.6 °F 86% 30.14 in 2.0 mi NE 8.1 mph - 0.00 in Snow Light Snow
1:41 PM 30.2 °F 23.4 °F 26.6 °F 86% 30.14 in 2.0 mi NE 6.9 mph - 0.00 in Snow Light Snow
1:45 PM 30.2 °F 23.4 °F 26.6 °F 86% 30.14 in 1.8 mi NE 6.9 mph - 0.00 in Snow Light Snow
1:55 PM 30.9 °F 25.2 °F 28.0 °F 89% 30.20 in 1.2 mi NE 5.8 mph - 0.00 in Snow Light Snow
2:10 PM 30.2 °F 23.4 °F 26.6 °F 86% 30.14 in 1.2 mi NE 6.9 mph - 0.01 in Snow Light Snow
2:24 PM 30.2 °F 23.4 °F 26.6 °F 86% 30.14 in 1.8 mi NNE 6.9 mph - 0.01 in Snow Light Snow
2:28 PM 30.2 °F 23.4 °F 26.6 °F 86% 30.15 in 2.0 mi NNE 6.9 mph - 0.01 in Snow Light Snow
2:40 PM 30.2 °F 24.3 °F 26.6 °F 86% 30.14 in 1.2 mi NNE 5.8 mph - 0.02 in Snow Light Snow
2:52 PM 30.2 °F 23.4 °F 26.6 °F 86% 30.14 in 1.5 mi NNE 6.9 mph - 0.02 in Snow Light Snow
2:55 PM 30.0 °F 23.2 °F 26.1 °F 85% 30.20 in 1.5 mi NNE 6.9 mph - 0.02 in Snow Light Snow
3:10 PM 30.2 °F 25.4 °F 26.6 °F 86% 30.15 in 0.8 mi NNE 4.6 mph - 0.00 in Snow Light Snow
3:27 PM 30.2 °F 25.4 °F 26.6 °F 86% 30.15 in 1.2 mi NNE 4.6 mph - 0.01 in Snow Light Snow
3:40 PM 30.2 °F 26.7 °F 26.6 °F 86% 30.15 in 2.5 mi NE 3.5 mph - 0.01 in Snow Light Snow
3:55 PM 30.0 °F - 27.0 °F 88% 30.22 in 4.0 mi Calm Calm - 0.01 in Snow Light Snow
4:33 PM 30.2 °F - 26.6 °F 86% 30.16 in 10.0 mi Calm Calm - 0.00 in   Overcast
4:50 PM 28.4 °F - 26.6 °F 93% 30.16 in 1.8 mi Calm Calm - 0.00 in Snow Light Snow
4:51 PM 28.9 °F - 27.0 °F 92% 30.22 in 1.8 mi Calm Calm - 0.00 in Snow Light Snow
4:53 PM 28.4 °F - 26.6 °F 93% 30.17 in 2.0 mi Calm Calm - 0.00 in Snow Light Snow
5:12 PM 28.4 °F - 26.6 °F 93% 30.17 in 3.0 mi Calm Calm - 0.00 in Snow Light Snow
5:55 PM 25.0 °F 20.7 °F 23.0 °F 92% 30.24 in 10.0 mi WNW 3.5 mph - 0.00 in   Partly Cloudy
6:24 PM 24.8 °F - 21.2 °F 86% 30.17 in 1.8 mi Calm Calm - N/A   Scattered Clouds
6:32 PM 24.8 °F - 21.2 °F 86% 30.17 in 0.5 mi Calm Calm - N/A Fog Light Freezing Fog
6:42 PM 24.8 °F - 21.2 °F 86% 30.17 in 0.2 mi Calm Calm - N/A Fog Light Freezing Fog
6:55 PM 21.0 °F - 19.0 °F 92% 30.24 in 0.2 mi Calm Calm - N/A Fog Light Freezing Fog
7:55 PM 21.9 °F - 19.9 °F 92% 30.25 in 0.2 mi Calm Calm - N/A Fog Light Freezing Fog
8:55 PM 21.9 °F 17.2 °F 19.9 °F 92% 30.25 in 0.2 mi NW 3.5 mph - N/A Fog Light Freezing Fog
9:55 PM 21.9 °F - 19.9 °F 92% 30.25 in 0.8 mi Calm Calm - N/A   Mist
10:01 PM 21.2 °F - 19.4 °F 93% 30.17 in 2.0 mi Calm Calm - N/A   Overcast
10:10 PM 21.2 °F - 19.4 °F 93% 30.17 in 8.0 mi Calm Calm - N/A   Overcast
10:55 PM 24.1 °F - 21.0 °F 88% 30.23 in 10.0 mi Calm Calm - N/A   Overcast
11:19 PM 24.8 °F - 21.2 °F 86% 30.15 in 10.0 mi Calm Calm - N/A   Overcast
11:55 PM 24.1 °F - 21.0 °F 88% 30.22 in 10.0 mi Calm Calm - N/A   Overcast